Weather in Valay

Russia / Perm Krai     60°49′38″N   57°30′25″E
temp.,
°C
wind,
m/s
gust,
m/s
humid.,
%
clouds,
%
prec.,
mm/h
press.,
hPa
HPBL,
m
28 february, sun
sun2823:00−23e12920 0.0 101620
02:00−25e11930 0.0 101520
05:00−26ese11950 0.0 101619
08:00−26e11940 0.0 101619
11:00−19e14900 0.0 1016205
14:00−14e24900 0.0 1015345
17:00−13ene35880 0.0 1015450
20:00−18e22900 0.0 101720
1 march, mon
mon123:00−22e11920 0.0 101820
02:00−23ese11930 0.0 101920
05:00−24ese01940 0.0 101920
08:00−25se01950 0.0 101920
11:00−17s12910 0.0 1018162
14:00−13sw239118 0.0 1016397
17:00−13ssw369348 0.0 1015380
20:00−16s3119788 0.0 1012329
2 march, tue
tue223:00−16ssw4139594 0.0 1011452
02:00−17s51495100 0.0 1008456
05:00−16s51393100 0.1 1005470
08:00−16s51294100 0.2 1002498
11:00−15s51195100 0.6 1001515
14:00−13s51194100 0.4 999580
17:00−12s4993100 0.9 999613
20:00−13s31094100 0.2 999593
3 march, wed
wed323:00−13s3995100 0.7 999527
02:00−14s2896100 0.4 998394
05:00−14sse2796100 0.6 998326
08:00−14sse2597100 0.4 998245
11:00−12s1395100 0.8 998314
14:00−9sw1192100 0.3 998389
17:00−9wnw1293100 0.5 998330
20:00−12nw1297100 0.3 99820
4 march, thu
thu423:00−13wnw1197100 0.4 99920
02:00−13w1197100 0.3 99820
05:00−13wnw1197100 0.4 99921
08:00−15w1197100 0.1 99920
11:00−11wsw139498 0.2 999257
14:00−9sw2493100 0.1 998548
17:00−9ssw3692100 0.3 997655
20:00−12s399799 0.1 996254